DW3640 Weather Reports


Display with metric or nautical units.
time (UTC)temp
F
wind
direction
speed
MPH
gust
MPH
rain 1hr
in
rain 24hr
in
rain mn
in
humidity
%
barometer
mb
20190326193130 66 303 2.0 0.0 0.00 0.00 0.00 68 1015.8
20190326191629 65 264 1.0 0.0 0.00 0.00 0.00 70 1016.1
20190326191512 65 351 0.0 0.0 0.00 0.00 0.00 70 1016.0
20190326190504 65 250 3.0 0.0 0.00 0.00 0.00 70 1016.2
20190326190050 64 303 1.0 0.0 0.00 0.00 0.00 70 1016.4
20190326185436 64 276 1.0 0.0 0.00 0.00 0.00 72 1016.4
20190326184510 64 264 2.0 0.0 0.00 0.00 0.00 71 1016.2
20190326184417 64 242 3.0 0.0 0.00 0.00 0.00 72 1016.1
20190326183012 64 310 2.0 0.0 0.00 0.00 0.00 73 1016.9
20190326181536 62 250 3.0 0.0 0.00 0.00 0.00 76 1016.8
20190326181418 62 286 1.0 0.0 0.00 0.00 0.00 77 1016.7
20190326180050 61 263 3.0 0.0 0.00 0.00 0.00 78 1016.6
20190326175518 61 237 2.0 0.0 0.00 0.00 0.00 78 1016.5
20190326173516 60 265 1.0 0.0 0.00 0.00 0.00 82 1016.6
20190326173041 59 245 4.0 0.0 0.00 0.00 0.00 82 1016.8
20190326172521 60 298 3.0 0.0 0.00 0.00 0.00 82 1016.7
20190326171517 59 272 1.0 0.0 0.00 0.00 0.00 84 1016.7
20190326171502 60 271 1.0 0.0 0.00 0.00 0.00 84 1016.6
20190326170519 59 276 0.0 0.0 0.00 0.00 0.00 85 1016.4
20190326170121 58 315 1.0 0.0 0.00 0.00 0.00 85 1016.5
20190326165511 58 318 0.0 0.0 0.00 0.00 0.00 86 1016.4
20190326164604 57 253 1.0 0.0 0.00 0.00 0.00 86 1016.5
20190326163112 56 277 0.0 0.0 0.00 0.00 0.00 87 1016.5
20190326162448 56 350 0.0 0.0 0.00 0.00 0.00 87 1016.3
20190326161530 55 82 0.0 0.0 0.00 0.00 0.00 87 1016.4
20190326161511 55 82 0.0 0.0 0.00 0.00 0.00 87 1016.3
20190326160300 54 82 0.0 0.0 0.00 0.00 0.00 87 1016.2
20190326155458 54 82 0.0 0.0 0.00 0.00 0.00 87 1016.0
20190326154505 53 82 0.0 0.0 0.00 0.00 0.00 87 1016.1
20190326153525 53 82 0.0 0.0 0.00 0.00 0.00 87 1015.8
20190326153120 52 83 0.0 0.0 0.00 0.00 0.00 87 1015.8
20190326152456 53 85 0.0 0.0 0.00 0.00 0.00 87 1015.6
20190326151444 52 85 0.0 0.0 0.00 0.00 0.00 87 1015.4
20190326150006 51 85 0.0 0.0 0.00 0.00 0.00 87 1015.6
20190326145459 52 85 0.0 0.0 0.00 0.00 0.00 87 1015.4
20190326144554 51 249 0.0 0.0 0.00 0.00 0.00 87 1015.5
20190326144528 52 249 0.0 0.0 0.00 0.00 0.00 87 1015.4
20190326143127 51 249 0.0 0.0 0.00 0.00 0.00 87 1015.5
20190326142418 51 249 0.0 0.0 0.00 0.00 0.00 87 1015.3
20190326141645 51 249 0.0 0.0 0.00 0.00 0.00 87 1015.5
20190326141523 52 249 0.0 0.0 0.00 0.00 0.00 87 1015.4
20190326134633 51 254 0.0 0.0 0.00 0.00 0.00 87 1015.4
20190326134507 52 254 0.0 0.0 0.00 0.00 0.00 87 1015.3
20190326133504 51 254 0.0 0.0 0.00 0.00 0.00 87 1015.2
20190326132501 51 254 0.0 0.0 0.00 0.00 0.00 87 1015.1
20190326131626 50 254 0.0 0.0 0.00 0.00 0.00 87 1015.2
20190326130436 50 257 0.0 0.0 0.00 0.00 0.00 87 1015.3
20190326130204 49 257 0.0 0.0 0.00 0.00 0.00 87 1015.4
20190326125513 50 257 0.0 0.0 0.00 0.00 0.00 87 1015.1
20190326124628 49 257 0.0 0.0 0.00 0.00 0.00 87 1015.0
20190326124438 49 257 0.0 0.0 0.00 0.00 0.00 87 1014.9
20190326123436 50 257 0.0 0.0 0.00 0.00 0.00 87 1014.8
20190326123100 49 257 0.0 0.0 0.00 0.00 0.00 87 1015.0
20190326121545 49 257 0.0 0.0 0.00 0.00 0.00 87 1014.9
20190326121532 50 257 0.0 0.0 0.00 0.00 0.00 87 1014.8
20190326120530 50 259 0.0 0.0 0.00 0.00 0.00 87 1014.9
20190326114630 49 257 0.0 0.0 0.00 0.00 0.00 87 1015.0
20190326113125 49 257 0.0 0.0 0.00 0.00 0.00 87 1015.1
20190326112516 50 257 0.0 0.0 0.00 0.00 0.00 87 1014.9
20190326111520 49 254 0.0 0.0 0.00 0.00 0.00 87 1015.0
20190326110121 49 254 0.0 0.0 0.00 0.00 0.00 87 1015.2
20190326105510 50 254 0.0 0.0 0.00 0.00 0.00 87 1015.1
20190326104532 49 254 0.0 0.0 0.00 0.00 0.00 87 1015.2
20190326104505 50 254 0.0 0.0 0.00 0.00 0.00 87 1015.2
20190326103003 49 254 0.0 0.0 0.00 0.00 0.00 87 1015.3
20190326102500 50 254 0.0 0.0 0.00 0.00 0.00 87 1015.2
20190326101518 50 254 0.0 0.0 0.00 0.00 0.00 87 1015.2
20190326100111 50 254 0.0 0.0 0.00 0.00 0.00 87 1015.5
20190326094639 51 254 0.0 0.0 0.00 0.00 0.00 87 1015.7
20190326094509 51 254 0.0 0.0 0.00 0.00 0.00 87 1015.6
20190326093116 51 254 0.0 0.0 0.00 0.00 0.00 87 1016.0
20190326091642 50 256 0.0 0.0 0.00 0.00 0.00 87 1016.2
20190326090459 51 256 0.0 0.0 0.00 0.00 0.00 87 1016.2
20190326090133 50 256 0.0 0.0 0.00 0.00 0.00 87 1016.4
20190326083512 52 256 0.0 0.0 0.00 0.00 0.00 87 1016.3
20190326081624 51 256 0.0 0.0 0.00 0.00 0.00 87 1016.6
20190326081527 52 256 0.0 0.0 0.00 0.00 0.00 87 1016.5
20190326080444 52 256 0.0 0.0 0.00 0.00 0.00 87 1016.5
20190326080010 51 256 0.0 0.0 0.00 0.00 0.00 87 1016.7
20190326074600 52 256 0.0 0.0 0.00 0.00 0.00 87 1016.7
20190326074501 52 256 0.0 0.0 0.00 0.00 0.00 87 1016.6
20190326073518 52 257 0.0 0.0 0.00 0.00 0.00 86 1016.7
20190326073157 52 257 0.0 0.0 0.00 0.00 0.00 86 1017.0
20190326071453 53 257 0.0 0.0 0.00 0.00 0.00 86 1017.0
20190326070026 53 257 0.0 0.0 0.00 0.00 0.00 86 1017.3
20190326065507 53 257 0.0 0.0 0.00 0.00 0.01 86 1017.2
20190326064601 53 257 0.0 0.0 0.00 0.00 0.01 86 1017.4
20190326063110 53 257 0.0 0.0 0.00 0.00 0.01 86 1017.4
20190326062525 54 257 0.0 0.0 0.00 0.00 0.01 86 1017.4
20190326061552 53 257 0.0 0.0 0.00 0.00 0.01 86 1017.5
20190326061418 54 257 0.0 0.0 0.00 0.00 0.01 86 1017.4
20190326054551 54 257 0.0 0.0 0.00 0.00 0.01 86 1017.5
20190326054525 54 257 0.0 0.0 0.00 0.00 0.01 86 1017.4
20190326053524 54 256 0.0 0.0 0.00 0.00 0.01 86 1017.5
20190326053130 54 256 0.0 0.0 0.00 0.00 0.01 86 1017.6
20190326052524 55 254 0.0 0.0 0.00 0.00 0.01 86 1017.5
20190326051627 55 112 0.0 0.0 0.00 0.00 0.01 86 1017.5
20190326050524 55 292 0.0 0.0 0.00 0.00 0.01 86 1017.5
20190326050208 55 294 0.0 0.0 0.00 0.00 0.01 86 1017.6
20190326044523 55 281 0.0 0.0 0.00 0.00 0.01 86 1017.5
20190326043603 56 275 0.0 0.0 0.00 0.00 0.01 85 1017.4
20190326043134 55 279 0.0 0.0 0.00 0.00 0.01 85 1017.4
20190326042601 56 279 0.0 0.0 0.00 0.00 0.01 85 1017.4
20190326041615 55 269 0.0 0.0 0.00 0.00 0.01 85 1017.3
20190326040638 56 298 0.0 0.0 0.00 0.00 0.01 85 1017.3
20190326040007 56 291 0.0 0.0 0.00 0.00 0.01 85 1017.4
20190326035637 56 291 0.0 0.0 0.00 0.00 0.01 85 1017.3
20190326033034 56 256 0.0 0.0 0.00 0.00 0.01 85 1017.1
20190326032600 57 256 0.0 0.0 0.00 0.00 0.01 84 1017.0
20190326031616 57 291 0.0 0.0 0.00 0.00 0.01 84 1017.1
20190326031538 56 291 0.0 0.0 0.00 0.00 0.01 84 1017.2
20190326030614 57 291 0.0 0.0 0.00 0.00 0.01 84 1017.1
20190326030036 57 260 1.0 0.0 0.00 0.00 0.01 83 1017.1
20190326025614 57 262 1.0 0.0 0.00 0.00 0.01 83 1017.0
20190326024612 57 268 0.0 0.0 0.00 0.00 0.01 82 1017.0
20190326023149 57 270 0.0 0.0 0.00 0.00 0.01 81 1016.8
20190326022619 58 175 0.0 0.0 0.00 0.00 0.01 81 1016.7
20190326021617 58 279 0.0 0.0 0.00 0.00 0.01 81 1016.6
20190326021505 58 279 2.0 0.0 0.00 0.00 0.01 81 1016.7
20190326020116 59 263 3.0 0.0 0.00 0.00 0.01 79 1016.7
20190326015551 60 279 1.0 0.0 0.00 0.00 0.01 78 1016.5
20190326014846 60 244 2.0 0.0 0.00 0.00 0.01 75 1016.8
20190326013034 61 303 6.0 0.0 0.00 0.00 0.01 73 1016.9
20190326012606 62 254 5.0 0.0 0.00 0.00 0.01 71 1016.7
20190326011648 62 300 4.0 0.0 0.00 0.00 0.01 70 1016.9
20190326011616 62 324 3.0 0.0 0.00 0.00 0.01 70 1016.8
20190326010619 63 285 3.0 0.0 0.00 0.00 0.01 69 1016.8
20190326010036 63 310 4.0 0.0 0.00 0.00 0.01 67 1017.1
20190326005559 64 290 3.0 0.0 0.00 0.00 0.01 69 1017.0
20190326004731 63 330 7.0 0.0 0.00 0.00 0.01 69 1017.1
20190326004638 64 288 4.0 0.0 0.00 0.00 0.01 69 1017.0
20190326003218 64 273 7.0 0.0 0.00 0.00 0.01 70 1017.2
20190326002615 65 260 3.0 0.0 0.00 0.00 0.01 69 1017.0
20190326001559 65 259 7.0 0.0 0.00 0.00 0.01 67 1017.2
20190326000033 67 294 4.0 0.0 0.00 0.00 0.01 66 1017.1
20190325234545 66 244 8.0 0.0 0.00 0.00 0.01 65 1017.0
20190325234507 66 223 7.0 0.0 0.00 0.00 0.01 65 1017.1
20190325233641 66 263 6.0 0.0 0.00 0.00 0.01 64 1017.2
20190325233007 67 259 6.0 0.0 0.00 0.00 0.01 63 1017.3
20190325231553 66 245 7.0 0.0 0.00 0.00 0.01 62 1017.4
20190325230615 67 264 7.0 0.0 0.00 0.00 0.01 69 1017.3
20190325230127 66 277 7.0 0.0 0.00 0.00 0.01 69 1017.5
20190325225554 67 269 5.0 0.0 0.00 0.00 0.01 67 1017.3
20190325224636 66 259 7.0 0.0 0.00 0.00 0.01 69 1017.5
20190325223037 65 269 9.0 0.0 0.00 0.00 0.01 70 1017.6
20190325221547 66 260 9.0 0.0 0.00 0.00 0.01 70 1017.5
20190325221542 66 296 10.0 0.0 0.00 0.00 0.01 70 1017.4
20190325220015 66 267 9.0 0.0 0.00 0.00 0.01 70 1017.6
20190325215602 66 273 13.0 0.0 0.00 0.00 0.01 71 1017.5
20190325213618 66 273 7.0 0.0 0.00 0.00 0.01 70 1017.5
20190325213131 66 298 8.0 0.0 0.00 0.00 0.01 70 1017.7
20190325210602 70 259 5.0 0.0 0.00 0.00 0.01 62 1017.6
20190325210025 70 260 3.0 0.0 0.00 0.00 0.01 60 1017.8
20190325204504 68 246 3.0 0.0 0.00 0.00 0.01 63 1018.1
20190325203629 68 261 7.0 0.0 0.00 0.00 0.01 63 1018.1
20190325203143 68 272 3.0 0.0 0.00 0.00 0.01 65 1018.3
20190325201620 66 260 2.0 0.0 0.00 0.00 0.01 65 1018.4
20190325201512 66 271 6.0 0.0 0.00 0.00 0.01 65 1018.6
20190325200524 67 194 2.0 13.0 0.00 0.00 0.01 64 1018.5
20190325200117 66 277 4.0 0.0 0.00 0.00 0.01 62 1018.7
20190325195524 67 166 5.0 13.0 0.00 0.00 0.01 64 1018.6
20190325194646 66 236 7.0 0.0 0.00 0.00 0.01 65 1018.8
20190325194524 66 234 8.0 14.0 0.00 0.00 0.01 65 1018.7